TimeCST,TemperatureF,Dew PointF,Humidity,Sea Level PressureIn,VisibilityMPH,Wind Direction,Wind SpeedMPH,Gust SpeedMPH,PrecipitationIn,Events,Conditions,WindDirDegrees,DateUTC
12:15 AM,36.5,30.4,78,30.20,10.0,Calm,Calm,-,N/A,,Overcast,0,2011-11-08 06:15:00
12:35 AM,36.3,30.0,78,30.20,10.0,Calm,Calm,-,N/A,,Overcast,0,2011-11-08 06:35:00
12:55 AM,36.1,29.8,78,30.19,10.0,Calm,Calm,-,N/A,,Overcast,0,2011-11-08 06:55:00
1:15 AM,36.0,31.1,82,30.20,10.0,Calm,Calm,-,N/A,,Overcast,0,2011-11-08 07:15:00
1:35 AM,36.7,30.2,77,30.20,10.0,Calm,Calm,-,N/A,,Overcast,0,2011-11-08 07:35:00
1:55 AM,37.2,29.3,73,30.18,10.0,Calm,Calm,-,N/A,,Overcast,0,2011-11-08 07:55:00
2:15 AM,37.0,29.5,74,30.19,10.0,Calm,Calm,-,N/A,,Overcast,0,2011-11-08 08:15:00
2:35 AM,36.9,29.5,75,30.18,10.0,Calm,Calm,-,N/A,,Overcast,0,2011-11-08 08:35:00
2:55 AM,36.9,30.7,79,30.18,10.0,Calm,Calm,-,N/A,,Overcast,0,2011-11-08 08:55:00
3:15 AM,36.9,31.1,80,30.17,10.0,Calm,Calm,-,N/A,,Overcast,0,2011-11-08 09:15:00
3:35 AM,36.9,30.9,79,30.16,10.0,Calm,Calm,-,N/A,,Overcast,0,2011-11-08 09:35:00
3:55 AM,36.7,30.7,79,30.16,10.0,Calm,Calm,-,N/A,,Overcast,0,2011-11-08 09:55:00
4:15 AM,37.2,31.3,79,30.16,10.0,Calm,Calm,-,N/A,,Overcast,0,2011-11-08 10:15:00
4:35 AM,38.7,29.3,69,30.15,10.0,NNE,3.5,-,N/A,,Overcast,20,2011-11-08 10:35:00
4:55 AM,39.7,28.0,63,30.15,10.0,NE,4.6,-,N/A,,Overcast,40,2011-11-08 10:55:00
5:15 AM,40.8,26.2,56,30.15,10.0,NE,4.6,-,N/A,,Overcast,50,2011-11-08 11:15:00
5:35 AM,41.7,25.2,52,30.15,10.0,ENE,5.8,-,N/A,,Overcast,60,2011-11-08 11:35:00
5:55 AM,41.7,25.2,52,30.15,10.0,Calm,Calm,-,N/A,,Overcast,0,2011-11-08 11:55:00
6:15 AM,41.5,25.7,53,30.14,10.0,East,5.8,-,N/A,,Overcast,90,2011-11-08 12:15:00
6:35 AM,41.4,26.4,55,30.13,10.0,ESE,4.6,-,N/A,,Overcast,110,2011-11-08 12:35:00
6:55 AM,40.8,28.6,62,30.13,10.0,East,6.9,-,N/A,,Overcast,100,2011-11-08 12:55:00
7:15 AM,40.5,31.8,71,30.13,10.0,Calm,Calm,-,N/A,,Overcast,0,2011-11-08 13:15:00
7:35 AM,40.6,31.6,70,30.14,10.0,ENE,3.5,-,N/A,,Overcast,70,2011-11-08 13:35:00
7:55 AM,40.8,32.4,72,30.14,10.0,East,6.9,-,N/A,,Light Drizzle,80,2011-11-08 13:55:00
8:15 AM,40.8,32.7,73,30.14,10.0,ENE,6.9,-,N/A,,Light Drizzle,60,2011-11-08 14:15:00
8:35 AM,40.8,33.1,74,30.15,10.0,NE,5.8,-,N/A,,Overcast,50,2011-11-08 14:35:00
8:55 AM,40.3,33.6,77,30.14,10.0,NE,4.6,-,N/A,,Light Drizzle,50,2011-11-08 14:55:00
9:15 AM,40.1,34.7,81,30.13,10.0,ENE,5.8,-,N/A,Rain,Light Rain,60,2011-11-08 15:15:00
9:35 AM,39.9,35.2,83,30.13,10.0,NE,6.9,-,N/A,,Light Drizzle,40,2011-11-08 15:35:00
9:55 AM,40.1,35.1,82,30.13,10.0,NE,8.1,-,N/A,,Overcast,50,2011-11-08 15:55:00
10:15 AM,40.8,34.9,79,30.14,10.0,NE,8.1,-,N/A,,Overcast,40,2011-11-08 16:15:00
10:35 AM,41.2,35.1,79,30.15,10.0,ENE,6.9,-,N/A,,Overcast,70,2011-11-08 16:35:00
10:55 AM,41.4,35.1,78,30.15,10.0,ENE,4.6,-,N/A,,Overcast,70,2011-11-08 16:55:00
11:15 AM,41.4,35.4,79,30.14,10.0,ENE,5.8,-,N/A,,Overcast,60,2011-11-08 17:15:00
11:55 AM,41.0,36.9,85,30.13,10.0,NNE,4.6,-,N/A,Rain,Light Rain,30,2011-11-08 17:55:00
12:15 PM,41.0,37.8,88,30.12,10.0,NNE,6.9,-,N/A,Rain,Light Rain,20,2011-11-08 18:15:00
12:35 PM,41.0,38.1,89,30.12,10.0,NNE,5.8,-,N/A,Rain,Light Rain,20,2011-11-08 18:35:00
12:55 PM,41.0,38.1,89,30.12,10.0,NNE,5.8,-,N/A,Rain,Light Rain,20,2011-11-08 18:55:00
1:15 PM,41.0,37.8,88,30.11,10.0,North,5.8,-,N/A,,Light Drizzle,10,2011-11-08 19:15:00
1:35 PM,41.0,37.8,88,30.11,10.0,NNE,5.8,-,N/A,,Light Drizzle,20,2011-11-08 19:35:00
2:15 PM,41.0,37.0,86,30.10,10.0,North,6.9,-,N/A,,Light Drizzle,10,2011-11-08 20:15:00
2:35 PM,41.0,36.5,84,30.09,10.0,NNE,6.9,-,N/A,,Light Drizzle,20,2011-11-08 20:35:00
2:55 PM,41.2,36.1,82,30.10,10.0,North,6.9,-,N/A,,Mostly Cloudy,10,2011-11-08 20:55:00
3:15 PM,41.2,35.6,81,30.10,10.0,North,5.8,-,N/A,,Overcast,10,2011-11-08 21:15:00
3:35 PM,41.4,35.6,80,30.10,10.0,NE,5.8,-,N/A,,Scattered Clouds,40,2011-11-08 21:35:00
3:55 PM,41.5,35.4,79,30.10,10.0,NE,4.6,-,N/A,,Mostly Cloudy,50,2011-11-08 21:55:00
4:15 PM,41.5,35.4,79,30.10,10.0,NE,3.5,-,N/A,,Overcast,50,2011-11-08 22:15:00
4:35 PM,41.5,35.2,78,30.10,10.0,ENE,3.5,-,N/A,,Overcast,60,2011-11-08 22:35:00
4:55 PM,41.2,34.9,78,30.09,10.0,NE,4.6,-,N/A,,Overcast,50,2011-11-08 22:55:00
5:15 PM,41.0,34.5,78,30.10,10.0,NNE,3.5,-,N/A,,Overcast,20,2011-11-08 23:15:00
5:35 PM,40.6,34.7,79,30.10,10.0,NE,3.5,-,N/A,,Overcast,50,2011-11-08 23:35:00
5:55 PM,40.5,34.7,80,30.10,10.0,Calm,Calm,-,N/A,,Overcast,0,2011-11-08 23:55:00
6:15 PM,40.1,34.7,81,30.10,10.0,Calm,Calm,-,N/A,,Overcast,0,2011-11-09 00:15:00
6:35 PM,40.1,34.5,80,30.10,10.0,Calm,Calm,-,N/A,,Overcast,0,2011-11-09 00:35:00
6:55 PM,40.1,34.2,79,30.11,10.0,Calm,Calm,-,N/A,,Overcast,0,2011-11-09 00:55:00
7:15 PM,40.3,34.2,79,30.10,10.0,North,3.5,-,N/A,,Overcast,10,2011-11-09 01:15:00
7:35 PM,39.7,34.2,80,30.09,10.0,North,4.6,-,N/A,,Overcast,10,2011-11-09 01:35:00
7:55 PM,39.9,34.0,79,30.11,10.0,Calm,Calm,-,N/A,,Overcast,0,2011-11-09 01:55:00
8:15 PM,40.1,34.2,79,30.11,10.0,Calm,Calm,-,N/A,,Overcast,0,2011-11-09 02:15:00
8:35 PM,39.6,34.3,82,30.12,10.0,Calm,Calm,-,N/A,,Overcast,0,2011-11-09 02:35:00
8:55 PM,39.2,34.9,84,30.12,10.0,Calm,Calm,-,N/A,,Overcast,0,2011-11-09 02:55:00
9:15 PM,39.2,35.2,86,30.11,10.0,North,3.5,-,N/A,,Overcast,350,2011-11-09 03:15:00
9:35 PM,39.9,34.3,80,30.11,10.0,North,3.5,-,N/A,,Overcast,350,2011-11-09 03:35:00
9:55 PM,39.7,34.3,81,30.10,10.0,North,4.6,-,N/A,,Overcast,360,2011-11-09 03:55:00
10:15 PM,40.1,33.3,77,30.08,10.0,NNE,5.8,-,N/A,,Overcast,20,2011-11-09 04:15:00
10:35 PM,40.3,32.9,75,30.07,10.0,NNE,8.1,-,N/A,Rain,Light Rain,30,2011-11-09 04:35:00
10:55 PM,40.1,33.3,77,30.07,10.0,NNE,4.6,-,N/A,,Light Drizzle,20,2011-11-09 04:55:00
11:15 PM,39.9,33.6,78,30.06,10.0,North,5.8,-,N/A,,Light Drizzle,10,2011-11-09 05:15:00
11:35 PM,39.7,33.6,79,30.06,10.0,North,4.6,-,N/A,Rain,Light Rain,360,2011-11-09 05:35:00
11:55 PM,39.6,33.6,79,30.06,10.0,North,4.6,-,N/A,Rain,Light Rain,10,2011-11-09 05:55:00